Location: ?????
(44.4284°N, 135.2222°E)
Time: 02:58:02
(UTC+00:00)

Cosmos 1821 Rocket - Pass Details

Date: 19 May 2025
Orbit: 943 x 1004 km, 82.9° (Epoch: 14 June)

Event Time Altitude Azimuth Distance (km) Brightness Sun altitude
Rises 13:31:12 0° 347° (NNW) 3,636 8.4 -22.8°
Reaches altitude 10° 13:33:45 10° 343° (NNW) 2,680 7.4 -23.0°
Maximum altitude 13:39:40 55° 268° (W) 1,129 4.4 -23.4°
Enters shadow 13:41:55 36° 211° (SSW) 1,459 4.6 -23.5°
